Location: Eastlake (historical)
(39.0077°N, 122.6678°W)
Time: 04:52:08
(UTC+00:00)

Cosmos 489 Rocket - Pass Details

Date: 25 November 2020
Orbit: 952 x 984 km, 74.0° (Epoch: 24 January)

Event Time Altitude Azimuth Distance (km) Brightness Sun altitude
Exits shadow 13:03:42 17° 343° (NNW) 2,252 6.1 -23.2°
Maximum altitude 13:08:45 86° 71° (ENE) 982 4.5 -22.3°
Drops below altitude 10° 13:15:04 10° 162° (SSE) 2,722 7.2 -21.0°
Sets 13:17:37 0° 162° (SSE) 3,669 7.9 -20.6°
